EHI
3 3 2 1 2 1 1 3 4 4 2 1 1 1 0 0 0 1 1 2 2 2 3 3 3 3 3 3 3 3 1 0 0 1 0 0 0 0 0 0 0 0 0
3 3 2 1 2 1 1 3 5 5 4 3 3 2 1 0 0 1 2 1 1 1 3 3 3 3 3 2 3 3 2 1 1 1 0 0 0 0 0 0 0 0 0
4 3 2 2 3 2 2 5 6 5 5 6 5 4 2 0 0 1 1 1 0 1 2 3 3 3 3 3 3 3 3 3 2 1 0 0 0 0 0 0 0 0 0
5 4 2 2 4 5 5 5 6 5 5 6 7 6 3 1 0 0 0 0 0 0 1 1 3 3 3 3 3 3 3 3 3 1 0 0 0 0 0 0 0 0 0
6 4 3 4 6 8 7 6 5 5 4 6 7 6 4 1 0 0 0 0 0 0 0 1 2 3 3 3 3 3 3 3 3 2 1 0 0 0 0 0 0 0 0
6 5 5 7 9 11 11 8 7 6 5 5 5 4 3 2 1 1 1 0 0 0 0 0 1 1 3 3 3 3 3 3 3 2 1 0 0 0 0 0 0 0 0
7 8 9 10 10 12 14 13 12 9 6 5 5 4 4 4 4 3 1 0 0 0 0 0 0 1 3 3 3 3 3 3 3 3 1 0 0 0 0 0 0 0 0
8 10 12 11 10 12 17 19 18 14 10 7 6 6 6 7 7 5 3 1 0 0 0 1 1 2 3 3 3 3 3 3 3 3 2 1 0 0 0 0 0 0 0
8 12 14 13 11 13 18 22 21 17 12 8 7 7 8 9 10 9 6 4 2 1 1 2 3 3 3 3 3 3 3 3 3 3 2 1 0 0 0 0 0 0 0
8 12 14 13 12 13 17 20 20 16 12 9 8 9 9 11 12 12 10 7 5 3 3 4 3 3 3 3 3 3 3 3 3 2 2 1 0 0 0 0 0 0 0
8 10 12 11 11 13 15 16 15 13 11 10 10 9 9 10 13 13 12 10 8 6 5 4 3 2 2 2 1 1 2 2 1 1 1 0 0 0 0 0 0 0 0
7 9 11 10 10 12 13 13 12 11 11 11 11 10 9 11 13 13 12 11 9 6 5 3 1 1 1 1 0 0 1 1 1 0 0 1 1 0 0 0 0 0 0
9 10 10 9 9 11 12 11 10 11 12 13 14 13 12 12 13 12 10 9 8 6 3 1 0 0 0 1 0 0 1 2 1 1 1 2 2 1 0 0 0 0 0
12 11 9 9 10 12 12 11 10 12 15 17 17 16 14 12 10 9 7 7 6 5 3 2 1 0 0 0 0 0 1 2 1 1 1 2 2 1 0 0 0 0 0
14 13 12 13 16 16 15 13 13 17 20 21 20 17 13 10 7 6 5 5 5 4 3 3 2 1 0 0 0 1 1 2 1 1 1 1 1 1 0 0 0 0 0
16 16 16 18 20 20 17 16 18 22 23 24 22 17 12 9 7 6 6 6 5 4 3 3 3 1 1 0 0 1 2 3 3 2 1 1 1 1 0 0 0 0 0
18 19 20 20 21 22 20 20 23 25 25 25 21 16 13 12 11 8 7 8 7 5 4 4 4 3 2 1 0 1 3 3 3 3 3 2 2 2 1 1 0 0 0
22 23 23 21 22 24 26 26 26 26 25 23 20 16 14 14 13 10 8 8 8 7 6 6 5 4 2 2 1 1 2 3 3 3 3 3 3 3 3 2 1 0 0
23 24 25 23 23 26 29 29 27 26 24 21 19 17 15 14 12 9 8 8 8 7 6 6 6 5 4 3 2 1 2 3 3 3 3 3 3 3 3 3 2 1 0
22 23 24 23 23 25 27 28 26 24 22 20 20 18 15 11 9 8 8 8 7 7 6 6 6 6 5 4 3 2 3 3 3 3 3 3 3 3 2 2 3 2 1
24 24 23 22 22 23 25 25 25 23 20 20 21 19 13 9 8 8 9 8 6 6 6 6 6 6 5 4 3 3 3 3 3 3 3 3 3 2 1 1 2 2 1
29 27 25 24 23 24 25 25 24 21 19 20 20 17 13 10 9 9 9 8 6 5 5 6 6 6 4 3 3 3 2 2 3 3 3 3 3 2 1 0 1 1 0
29 27 25 25 24 24 24 24 22 19 19 19 17 14 12 11 9 9 9 9 7 6 6 6 6 6 4 3 3 3 1 1 2 3 3 3 2 1 1 0 0 0 0
25 23 23 23 23 23 23 22 21 20 19 17 14 12 11 10 8 7 7 8 8 6 6 6 6 5 4 3 3 2 2 1 2 3 3 2 1 1 2 1 0 0 0
22 21 20 20 20 21 20 19 20 20 18 14 11 11 10 9 7 4 4 5 5 4 4 4 5 4 3 2 1 1 2 2 2 3 3 3 2 3 3 2 1 0 0
23 21 18 17 18 19 18 17 18 19 16 12 10 10 10 8 5 3 2 2 2 3 3 4 3 2 1 1 0 0 1 2 3 3 3 3 3 3 3 2 1 0 0
Wind_Speed
6 5 5 6 5 5 5 5 5 4 3 2 1 1 0 0 1 1 1 1 1 1 1 0 1 0 0 1 1 1 1 1 1 1 1 1 1 0 1 1 1 1 2
5 5 6 6 6 6 6 5 5 4 4 2 2 1 1 0 0 1 2 2 1 1 0 1 0 0 0 0 1 1 1 1 1 2 1 1 2 1 1 0 1 1 1
9 8 8 7 7 7 7 6 5 5 4 3 2 2 2 2 2 2 1 2 1 1 0 0 0 1 1 1 1 2 2 2 1 1 2 2 1 1 2 2 1 1 0
9 8 8 8 9 8 6 6 5 4 4 4 3 3 2 1 1 0 1 2 2 2 1 1 0 0 0 1 1 1 2 2 1 1 1 2 2 2 0 1 2 2 1
10 10 10 10 9 8 6 6 5 4 4 4 5 4 3 2 1 0 1 1 2 2 2 1 1 1 1 1 1 1 1 1 2 2 1 1 1 2 2 1 1 2 2
9 9 8 7 6 6 6 6 6 5 4 5 5 5 4 3 2 1 0 1 1 2 2 2 1 1 1 1 1 1 0 1 1 1 1 2 2 2 2 2 1 1 1
9 8 8 8 8 8 7 7 7 6 5 5 5 5 4 4 3 2 1 0 1 1 2 2 1 1 1 1 1 1 1 0 1 1 1 1 2 2 2 3 2 1 1
8 9 9 9 9 9 8 8 8 6 6 5 5 4 4 3 2 2 1 1 1 1 1 1 1 1 1 1 1 1 1 1 0 0 0 0 0 1 2 3 3 2 1
9 9 9 8 8 8 8 9 8 7 6 6 5 4 3 3 2 2 1 1 0 0 1 1 2 2 2 2 2 2 2 2 1 1 1 1 1 1 1 2 2 3 2
7 8 8 8 7 7 7 7 7 7 6 6 5 4 3 3 3 2 2 1 1 1 1 2 2 3 3 3 3 2 2 3 3 2 3 2 2 1 1 1 1 1 2
8 7 7 7 7 7 7 7 7 6 6 5 5 4 4 3 3 3 2 1 1 2 2 2 2 3 3 3 3 3 3 4 3 3 4 3 2 2 2 2 2 2 3
6 7 7 7 7 8 7 7 7 7 6 6 5 5 4 4 4 3 2 2 2 2 2 3 3 3 3 3 4 4 4 4 4 3 4 3 3 3 2 2 3 3 3
6 6 6 7 7 8 7 7 7 7 6 6 6 6 5 4 4 3 3 3 3 3 3 3 3 3 3 4 4 4 4 4 4 3 3 3 3 3 3 3 3 3 4
7 7 7 6 7 7 7 7 7 7 7 7 7 6 5 5 4 4 3 3 3 3 3 3 3 3 3 3 3 4 4 4 4 4 3 3 3 3 3 4 4 4 5
7 8 7 7 7 7 7 7 7 7 7 8 7 6 5 5 5 4 3 3 3 3 3 3 3 3 3 3 3 3 4 4 4 4 4 4 5 5 4 4 4 5 5
8 8 8 8 8 8 8 7 7 7 8 8 7 6 5 5 5 4 4 4 4 3 4 4 3 3 3 4 6 5 4 4 4 4 4 4 5 6 7 8 7 6 5
7 8 8 8 8 8 8 8 8 7 8 7 7 6 6 6 5 5 5 4 3 3 4 3 3 3 3 5 6 7 5 5 4 4 4 4 4 5 5 7 8 7 7
7 7 7 6 5 6 7 7 8 8 8 7 7 6 6 6 5 5 5 4 3 3 3 3 3 3 3 6 7 7 5 5 5 4 4 4 4 4 4 5 6 5 5
6 6 6 6 6 7 8 9 8 8 8 7 7 7 7 6 6 5 5 4 4 3 3 2 3 3 3 5 6 6 4 4 4 4 4 3 3 4 5 5 5 5 4
5 5 6 7 7 7 8 9 8 8 8 7 7 6 6 7 6 5 4 3 4 3 3 3 2 2 2 3 5 5 3 3 3 3 4 5 4 4 4 4 4 4 2
6 7 8 7 6 8 9 8 7 7 6 6 6 6 6 6 6 5 4 5 4 4 3 3 2 2 2 2 4 4 3 3 2 2 2 2 4 5 5 4 3 3 3
5 7 7 6 6 7 9 8 7 6 7 7 7 6 6 5 5 6 5 5 5 5 3 2 2 1 1 1 2 3 4 4 3 2 1 1 4 5 5 4 4 6 5
5 5 7 6 5 6 8 8 6 7 8 8 7 6 5 4 5 6 6 5 4 4 3 2 2 0 1 1 2 3 4 5 3 2 2 3 4 5 4 5 5 5 3
4 4 7 6 5 5 5 6 6 7 8 8 6 6 6 5 4 4 4 4 4 4 3 3 2 1 0 0 1 1 2 3 3 2 3 4 5 4 4 4 3 2 2
4 4 5 5 5 5 5 6 7 8 7 7 6 6 5 5 4 3 3 4 4 5 5 4 4 4 3 3 4 3 3 3 3 3 2 2 2 2 2 2 2 2 2
4 4 5 5 5 5 5 5 6 7 8 6 6 5 5 4 4 4 2 2 1 4 5 5 4 3 3 4 4 4 4 5 6 4 2 2 2 2 1 1 1 0 1
Wind_Direction
205 184 181 177 169 171 176 180 174 170 146 135 138 138 125 22 8 344 2 29 42 56 91 19 317 249 204 220 199 172 174 196 152 107 10 2 24 154 236 221 196 210 213
199 188 184 183 182 183 187 186 180 174 172 162 154 150 132 130 328 349 13 17 17 357 124 155 301 261 246 261 205 176 174 205 171 156 142 344 358 9 350 190 185 216 212
200 195 190 195 191 191 194 192 187 182 179 162 121 95 74 48 29 7 358 348 350 350 360 105 231 253 221 249 245 202 195 215 218 186 167 169 222 325 11 29 62 81 123
200 196 194 193 199 201 193 186 182 180 174 162 154 156 153 167 202 210 314 344 4 359 359 20 137 243 242 266 268 218 213 196 210 217 216 199 170 175 336 20 39 52 48
198 197 197 196 199 190 182 179 172 175 173 167 163 157 157 163 141 102 7 354 356 357 356 11 22 352 313 298 297 281 220 203 197 198 195 183 174 182 184 213 34 44 38
198 195 193 183 186 178 172 168 166 175 171 165 161 163 165 159 141 123 36 354 352 355 359 4 357 337 328 319 304 297 265 222 208 205 200 186 180 184 178 187 175 82 37
189 184 181 181 182 178 175 166 165 171 167 162 165 171 171 165 172 177 166 105 355 347 343 354 345 330 317 325 340 359 350 310 231 220 217 209 212 181 160 155 163 142 62
182 184 187 186 184 180 172 166 167 171 167 166 170 166 164 162 167 169 157 159 201 269 339 9 8 357 357 3 19 24 2 30 25 331 191 118 184 161 162 160 155 146 101
181 183 181 180 177 174 173 171 168 167 168 171 162 157 159 158 160 153 143 140 169 130 34 36 31 19 24 26 45 44 27 40 37 32 54 63 41 97 133 152 166 164 162
179 176 173 176 174 169 165 159 162 167 165 166 168 162 158 159 156 138 136 132 110 75 63 54 46 41 37 36 47 45 38 55 41 49 65 59 47 67 88 141 146 152 151
178 175 170 168 161 154 155 157 158 155 155 158 152 147 145 145 138 133 129 114 85 70 66 63 63 60 49 45 54 49 50 60 49 47 63 61 60 68 59 79 94 98 114
169 165 160 154 154 158 158 159 159 159 159 152 143 144 138 130 125 119 107 97 84 70 70 71 69 66 59 55 61 56 53 62 58 48 58 56 70 68 64 78 89 96 101
153 149 148 157 160 160 158 157 157 156 149 143 140 138 138 133 128 119 106 98 91 74 68 74 74 68 65 65 65 67 64 65 63 59 64 63 77 75 72 81 87 93 99
156 158 161 162 159 155 154 152 150 147 146 143 143 146 149 144 137 124 111 104 99 87 76 74 77 81 78 71 71 72 68 62 57 54 57 62 75 88 92 91 92 101 103
164 168 168 163 155 150 151 148 146 147 146 144 148 152 147 138 130 124 115 104 95 91 86 80 68 66 76 74 78 77 73 62 55 49 47 56 70 75 89 102 106 112 113
178 175 167 162 161 160 158 153 152 152 146 147 149 144 141 137 135 131 121 108 96 90 85 78 75 65 64 80 86 89 77 65 59 52 41 50 57 69 78 88 96 108 125
179 174 173 172 168 166 161 160 154 146 145 147 145 144 144 142 144 139 126 121 114 102 92 85 81 74 69 87 91 87 86 72 61 56 48 51 53 63 80 80 77 75 83
176 174 168 164 156 149 145 142 141 146 147 146 147 148 147 147 144 136 134 130 120 114 105 94 89 85 80 91 96 94 86 76 60 52 56 63 50 60 87 92 80 69 60
167 166 158 147 142 147 146 141 143 147 148 152 155 155 152 150 148 145 143 136 128 118 109 104 97 93 82 93 106 105 92 79 62 50 51 62 62 62 91 100 95 78 58
138 141 135 130 136 141 139 142 149 152 159 161 157 152 150 149 152 151 142 129 128 128 121 101 89 99 94 100 114 118 110 93 75 56 47 52 68 74 94 109 110 99 73
141 138 135 138 145 142 141 146 154 166 163 148 143 144 147 149 149 141 134 131 129 123 116 105 83 78 79 99 118 128 128 132 113 83 54 41 62 77 83 97 109 127 120
130 133 132 134 136 143 146 150 167 166 146 142 143 146 148 149 144 140 135 135 135 128 122 110 84 52 50 86 131 137 139 139 128 124 98 65 77 83 86 94 101 106 104
132 134 135 133 138 150 154 159 165 150 143 141 145 147 145 142 145 147 146 143 144 144 148 147 148 125 39 56 129 134 133 136 129 132 122 97 89 87 81 89 103 107 106
131 133 137 143 152 157 156 155 150 148 144 147 149 149 147 145 143 145 154 160 164 164 167 174 179 185 206 219 142 135 132 124 119 115 95 85 80 79 79 76 77 89 107
139 144 153 159 166 157 154 151 151 148 149 151 151 151 152 151 150 149 159 172 185 185 179 189 186 186 210 224 192 166 167 162 151 129 100 84 83 80 69 64 67 76 91
140 145 156 157 158 155 152 154 155 153 153 155 158 160 158 156 157 153 123 65 152 179 185 187 186 205 204 177 171 171 162 153 145 127 126 130 138 150 158 152 119 97 128